DW5086 Weather Reports


time (UTC)temp
F
wind
direction
speed
knots
gust
knots
rain 1hr
in
rain 24hr
in
rain mn
in
humidity
%
barometer
mb
20260503180106 64 0 7.8 18.2 0.00 0.00 0.00 51 1004.6
20260503170105 62 0 10.4 17.4 0.00 0.00 0.00 55 1005.5
20260503150606 57 0 10.4 18.2 0.00 0.00 0.00 59 1007.1
20260503150105 57 0 8.7 19.1 0.00 0.00 0.00 60 1007.1
20260503140106 57 0 8.7 20.0 0.00 0.00 0.00 58 1007.3
20260503130105 53 0 3.5 10.4 0.00 0.00 0.00 60 1007.9
20260503120105 51 0 1.7 8.7 0.00 0.00 0.00 63 1007.9
20260503110105 50 0 0.9 7.0 0.00 0.00 0.00 63 1008.1
20260503090106 51 0 0.9 7.8 0.00 0.00 0.00 59 1009.4
20260503080605 50 0 2.6 5.2 0.00 0.00 0.00 59 1009.8
20260503080105 50 0 0.9 5.2 0.00 0.00 0.00 61 1009.8
20260503070605 50 0 0.9 2.6 0.00 0.00 0.00 65 1010.0
20260503070105 50 0 1.7 4.3 0.00 0.00 0.00 64 1010.1
20260503060105 49 0 0.0 2.6 0.00 0.00 0.00 66 1010.9
20260503050605 49 0 0.0 0.9 0.00 0.00 0.00 67 1011.4
20260503050106 49 0 0.0 2.6 0.00 0.00 0.00 68 1011.4
20260503040606 48 0 0.0 0.9 0.00 0.00 0.00 67 1011.8
20260503020105 53 0 0.0 1.7 0.00 0.00 0.00 49 1012.5
20260503010107 57 0 2.6 7.8 0.00 0.00 0.00 46 1012.3
20260503000604 58 0 5.2 7.0 0.00 0.00 0.00 40 1012.4
20260503000105 58 0 2.6 13.9 0.00 0.00 0.00 40 1012.5
20260502230604 59 0 2.6 7.8 0.00 0.00 0.00 41 1012.7
20260502230105 59 0 0.0 4.3 0.00 0.00 0.00 41 1012.8
20260502220604 57 0 0.9 2.6 0.00 0.00 0.00 41 1013.3
20260502220105 57 0 1.7 7.8 0.00 0.00 0.00 45 1013.4
20260502210105 57 0 6.1 7.8 0.00 0.00 0.00 42 1014.0
20260502200605 56 0 1.7 2.6 0.00 0.00 0.00 44 1015.0
20260502200105 56 0 1.7 7.0 0.00 0.00 0.00 44 1015.1
20260502190104 55 0 1.7 10.4 0.00 0.00 0.00 44 1016.0